Flag for U.S.A. Weather past 2 weeks in Simi Valley, California, U.S.A.

Now
83 °F

Sunny.


Feels Like: 82 °F
Forecast: 60 / 82 °F
Wind: 9 mph from Southeast

Location: Van Nuys Airport

Current Time: Aug 20, 2014 at 1:54:06 PM

Latest Report: Aug 20, 2014 at 12:51 PM


Visibility: 10 mi

Pressure: 29.89 "Hg

Humidity: 34%

Dew point: 52 °F

Location of Simi ValleyLocation

Historic Weather in Simi Valley — Graph

°F

Simi Valley temperature yesterday

Maximum temperature yesterday: 82 °F (at 2:51 PM)
Minimum temperature yesterday: 67 °F (at 1:51 AM)
Average temperature yesterday: 72 °F

Past Weeks' High & Low Weather Summary

 TemperatureHumidityPressure
High98 °F (Aug 16, 2:51 PM)87% (Aug 8, 5:51 AM)30.04 "Hg (Aug 8, 5:51 AM)
Low61 °F (Aug 6, 5:51 AM)10% (Aug 5, 3:51 PM)29.73 "Hg (Aug 18, 3:51 PM)
Average76 °F52%29.91 "Hg
* Reported Aug 5 12:51 PM — Aug 20 12:51 PM, Simi Valley, Weather by CustomWeather, © 2014

Note: Actual official high and low records may vary slightly from our data, if they occured in-between our weather recording intervals... More about our weather records

Advertising

Simi Valley weather history for previous 24 hours

 ConditionsComfort  
Time TempWeatherWind HumidityBarometerVisibility
12:51 PM
Aug 20
83 °FSunny.9 mph34%29.89 "Hg10 mi
11:51 AM80 °FSunny.7 mph44%29.91 "Hg10 mi
10:51 AM77 °FPassing clouds.6 mph48%29.93 "Hg10 mi
10:03 AM72 °FScattered clouds.7 mph61%29.96 "Hg10 mi
9:51 AM72 °FPartly sunny.7 mph59%29.93 "Hg10 mi
8:58 AM72 °FPartly sunny.No wind61%29.94 "Hg10 mi
7:51 AM68 °FScattered clouds.3 mph68%29.90 "Hg10 mi
6:51 AM67 °FOvercast.No wind71%29.90 "Hg10 mi
5:51 AM67 °FOvercast.6 mph73%29.88 "Hg10 mi
4:51 AM67 °FOvercast.5 mph73%29.87 "Hg10 mi
3:51 AM68 °FOvercast.6 mph70%29.87 "Hg10 mi
2:51 AM68 °FOvercast.5 mph70%29.86 "Hg10 mi
1:51 AM68 °FOvercast.5 mph73%29.86 "Hg10 mi
12:51 AM68 °FOvercast.5 mph73%29.86 "Hg10 mi
11:51 PM
Aug 19
68 °FOvercast.3 mph76%29.85 "Hg10 mi
10:51 PM67 °FOvercast.3 mph79%29.86 "Hg10 mi
9:51 PM67 °FOvercast.6 mph76%29.87 "Hg10 mi
8:51 PM67 °FClear.8 mph76%29.85 "Hg10 mi
7:51 PM69 °FPassing clouds.6 mph70%29.83 "Hg10 mi
6:51 PM72 °FSunny.8 mph64%29.81 "Hg10 mi
5:51 PM76 °FSunny.9 mph56%29.81 "Hg10 mi
4:51 PM78 °FSunny.12 mph52%29.81 "Hg10 mi
3:51 PM79 °FSunny.12 mph50%29.81 "Hg10 mi
2:51 PM82 °FSunny.10 mph43%29.82 "Hg10 mi
1:51 PM81 °FSunny.10 mph44%29.84 "Hg10 mi
Weather by CustomWeather, © 2014

See weather overviewHow to use our weather pages